• In Czech Republic
  • List of Countries
  • For 7 days
  • Water Temperature
  • Satellite Maps
  • Weather Map
  • Weather Widgets
  • user-avatar
    Login

    Hourly Weather Pugachevo

    Today, 20 July, Friday

    Time Temperature Precipitation Wind Pressure Humidity
    00:00 +27°C° 0.1 mm 3 mps 750 mmHg 50%
    01:00 +26°C° 0.1 mm 3 mps 750 mmHg 53%
    02:00 +26°C° 0 mm 3 mps 750 mmHg 55%
    03:00 +25°C° 0 mm 2 mps 751 mmHg 57%
    04:00 +25°C° 0 mm 2 mps 751 mmHg 59%
    05:00 +26°C° 0 mm 2 mps 751 mmHg 57%
    06:00 +27°C° 0 mm 2 mps 751 mmHg 56%
    07:00 +28°C° 0 mm 3 mps 751 mmHg 54%
    08:00 +29°C° 0 mm 3 mps 750 mmHg 49%
    09:00 +31°C° 0 mm 3 mps 750 mmHg 45%
    10:00 +34°C° 0 mm 4 mps 750 mmHg 40%
    11:00 +35°C° 0 mm 4 mps 750 mmHg 36%
    12:00 +36°C° 0 mm 4 mps 750 mmHg 33%
    13:00 +37°C° 0 mm 3 mps 750 mmHg 29%
    14:00 +37°C° 0 mm 3 mps 750 mmHg 29%
    15:00 +37°C° 0 mm 3 mps 749 mmHg 29%
    16:00 +37°C° 0 mm 3 mps 749 mmHg 28%
    17:00 +36°C° 0 mm 3 mps 749 mmHg 32%
    18:00 +35°C° 0 mm 4 mps 749 mmHg 36%
    19:00 +34°C° 0 mm 4 mps 749 mmHg 39%
    20:00 +33°C° 0.3 mm 5 mps 749 mmHg 43%
    21:00 +32°C° 0.3 mm 5 mps 749 mmHg 46%
    22:00 +29°C° 0.3 mm 6 mps 749 mmHg 49%
    23:00 +28°C° 0.8 mm 5 mps 749 mmHg 55%

    Tomorrow, 21 July, Saturday

    Time Temperature Precipitation Wind Pressure Humidity
    00:00 +27°C° 0.8 mm 5 mps 749 mmHg 60%
    01:00 +26°C° 0.8 mm 5 mps 749 mmHg 66%
    02:00 +26°C° 0.2 mm 4 mps 749 mmHg 67%
    03:00 +26°C° 0.2 mm 4 mps 749 mmHg 69%
    04:00 +25°C° 0.2 mm 4 mps 749 mmHg 70%
    05:00 +26°C° 0 mm 4 mps 749 mmHg 69%
    06:00 +26°C° 0 mm 5 mps 749 mmHg 67%
    07:00 +26°C° 0 mm 6 mps 749 mmHg 66%
    08:00 +28°C° 0 mm 6 mps 749 mmHg 62%
    09:00 +29°C° 0 mm 6 mps 750 mmHg 57%
    10:00 +30°C° 0 mm 6 mps 750 mmHg 53%
    11:00 +32°C° 0 mm 6 mps 749 mmHg 49%
    12:00 +33°C° 0 mm 6 mps 749 mmHg 45%
    13:00 +34°C° 0 mm 6 mps 749 mmHg 42%
    14:00 +34°C° 0 mm 6 mps 749 mmHg 41%
    15:00 +34°C° 0 mm 7 mps 749 mmHg 41%
    16:00 +34°C° 0 mm 7 mps 749 mmHg 41%
    17:00 +33°C° 0 mm 7 mps 749 mmHg 44%
    18:00 +32°C° 0 mm 7 mps 749 mmHg 47%
    19:00 +30°C° 0 mm 7 mps 750 mmHg 51%
    20:00 +29°C° 0.3 mm 8 mps 750 mmHg 54%
    21:00 +27°C° 0.3 mm 8 mps 750 mmHg 58%
    22:00 +26°C° 0.3 mm 8 mps 750 mmHg 62%
    23:00 +24°C° 0 mm 8 mps 750 mmHg 64%

    Day after tomorrow, 22 July, Sunday

    Time Temperature Precipitation Wind Pressure Humidity
    00:00 +23°C° 0 mm 8 mps 750 mmHg 66%
    01:00 +22°C° 0 mm 7 mps 750 mmHg 68%
    02:00 +22°C° 0.3 mm 7 mps 750 mmHg 69%
    03:00 +21°C° 0.3 mm 6 mps 751 mmHg 71%
    04:00 +21°C° 0.3 mm 5 mps 751 mmHg 73%
    05:00 +21°C° 0.1 mm 6 mps 751 mmHg 72%
    06:00 +22°C° 0.1 mm 7 mps 751 mmHg 71%
    07:00 +22°C° 0.1 mm 7 mps 751 mmHg 69%
    08:00 +23°C° 0 mm 7 mps 751 mmHg 66%
    09:00 +24°C° 0 mm 7 mps 751 mmHg 62%
    10:00 +27°C° 0 mm 7 mps 751 mmHg 59%
    11:00 +27°C° 0 mm 7 mps 751 mmHg 56%
    12:00 +28°C° 0 mm 7 mps 751 mmHg 54%
    13:00 +29°C° 0 mm 7 mps 751 mmHg 52%
    14:00 +29°C° 0 mm 7 mps 751 mmHg 51%
    15:00 +29°C° 0 mm 7 mps 751 mmHg 50%
    16:00 +29°C° 0 mm 7 mps 751 mmHg 48%
    17:00 +29°C° 0.1 mm 7 mps 751 mmHg 47%
    18:00 +28°C° 0.1 mm 7 mps 751 mmHg 47%
    19:00 +28°C° 0.1 mm 7 mps 752 mmHg 46%
    20:00 +27°C° 0.2 mm 7 mps 752 mmHg 44%
    21:00 +24°C° 0.2 mm 7 mps 752 mmHg 43%
    22:00 +23°C° 0.2 mm 7 mps 753 mmHg 42%
    23:00 +23°C° 0.1 mm 7 mps 753 mmHg 42%

    23 July, Monday

    Time Temperature Precipitation Wind Pressure Humidity
    00:00 +22°C° 0.1 mm 7 mps 753 mmHg 42%
    01:00 +22°C° 0.1 mm 7 mps 753 mmHg 42%
    02:00 +21°C° 0 mm 7 mps 753 mmHg 43%
    03:00 +21°C° 0 mm 7 mps 753 mmHg 43%
    04:00 +20°C° 0 mm 7 mps 753 mmHg 44%
    05:00 +20°C° 0 mm 7 mps 754 mmHg 45%
    06:00 +20°C° 0 mm 7 mps 754 mmHg 46%
    07:00 +21°C° 0 mm 8 mps 754 mmHg 46%
    08:00 +22°C° 0 mm 8 mps 754 mmHg 44%
    09:00 +23°C° 0 mm 8 mps 755 mmHg 41%
    10:00 +26°C° 0 mm 8 mps 755 mmHg 38%
    11:00 +27°C° 0 mm 8 mps 755 mmHg 36%
    12:00 +28°C° 0 mm 8 mps 755 mmHg 33%
    13:00 +29°C° 0 mm 8 mps 755 mmHg 30%
    14:00 +31°C° 0 mm 8 mps 755 mmHg 30%
    15:00 +30°C° 0 mm 7 mps 755 mmHg 29%
    16:00 +30°C° 0 mm 7 mps 755 mmHg 29%
    17:00 +29°C° 0 mm 7 mps 755 mmHg 31%
    18:00 +28°C° 0 mm 6 mps 755 mmHg 33%
    19:00 +28°C° 0 mm 6 mps 755 mmHg 35%
    20:00 +26°C° 0 mm 6 mps 756 mmHg 36%
    21:00 +24°C° 0 mm 6 mps 756 mmHg 38%
    22:00 +23°C° 0 mm 6 mps 756 mmHg 40%
    23:00 +22°C° 0 mm 6 mps 756 mmHg 42%

    24 July, Tuesday

    Time Temperature Precipitation Wind Pressure Humidity
    00:00 +22°C° 0 mm 6 mps 756 mmHg 43%
    01:00 +21°C° 0 mm 7 mps 756 mmHg 44%
    02:00 +20°C° 0 mm 6 mps 757 mmHg 44%
    03:00 +20°C° 0 mm 6 mps 757 mmHg 44%
    04:00 +19°C° 0 mm 6 mps 757 mmHg 44%
    05:00 +20°C° 0 mm 6 mps 757 mmHg 44%
    06:00 +20°C° 0 mm 6 mps 757 mmHg 44%
    07:00 +21°C° 0 mm 7 mps 758 mmHg 44%
    08:00 +22°C° 0 mm 6 mps 758 mmHg 40%
    09:00 +24°C° 0 mm 6 mps 758 mmHg 36%
    10:00 +27°C° 0 mm 6 mps 758 mmHg 32%
    11:00 +28°C° 0 mm 6 mps 758 mmHg 29%
    12:00 +29°C° 0 mm 6 mps 758 mmHg 27%
    13:00 +30°C° 0 mm 6 mps 758 mmHg 24%
    14:00 +30°C° 0 mm 6 mps 758 mmHg 23%
    15:00 +32°C° 0 mm 5 mps 757 mmHg 23%
    16:00 +32°C° 0 mm 5 mps 757 mmHg 22%
    17:00 +30°C° 0 mm 5 mps 757 mmHg 24%
    18:00 +30°C° 0 mm 4 mps 757 mmHg 27%
    19:00 +29°C° 0 mm 4 mps 757 mmHg 29%
    20:00 +27°C° 0 mm 5 mps 757 mmHg 34%
    21:00 +26°C° 0 mm 5 mps 758 mmHg 38%
    22:00 +23°C° 0 mm 6 mps 758 mmHg 42%
    23:00 +23°C° 0 mm 5 mps 758 mmHg 45%

    25 July, Wednesday

    Time Temperature Precipitation Wind Pressure Humidity
    00:00 +22°C° 0 mm 5 mps 758 mmHg 48%
    01:00 +22°C° 0 mm 5 mps 758 mmHg 51%
    02:00 +21°C° 0 mm 5 mps 758 mmHg 54%
    03:00 +20°C° 0 mm 5 mps 758 mmHg 57%
    04:00 +20°C° 0 mm 4 mps 758 mmHg 59%
    05:00 +21°C° 0 mm 5 mps 759 mmHg 58%
    06:00 +22°C° 0 mm 5 mps 759 mmHg 57%
    07:00 +23°C° 0 mm 5 mps 759 mmHg 55%
    08:00 +26°C° 0 mm 5 mps 759 mmHg 49%
    09:00 +28°C° 0 mm 5 mps 759 mmHg 43%
    10:00 +30°C° 0 mm 5 mps 759 mmHg 36%
    11:00 +32°C° 0 mm 5 mps 759 mmHg 33%
    12:00 +33°C° 0 mm 5 mps 759 mmHg 30%
    13:00 +34°C° 0 mm 4 mps 758 mmHg 27%
    14:00 +34°C° 0 mm 4 mps 758 mmHg 26%
    15:00 +34°C° 0 mm 4 mps 758 mmHg 25%
    16:00 +35°C° 0 mm 4 mps 758 mmHg 25%
    17:00 +34°C° 0 mm 4 mps 758 mmHg 28%
    18:00 +33°C° 0 mm 4 mps 758 mmHg 31%
    19:00 +33°C° 0 mm 3 mps 758 mmHg 34%
    20:00 +30°C° 0 mm 4 mps 758 mmHg 38%
    21:00 +28°C° 0 mm 4 mps 758 mmHg 41%
    22:00 +27°C° 0 mm 4 mps 758 mmHg 45%
    23:00 +26°C° 0 mm 4 mps 759 mmHg 48%
    Show more